User: anonymous   Login
Location: ??????
(55.8274°N, 37.9338°E)
Time: 18:38:32
(UTC+00:00)
Language:

Cosmos 1975 - Orbit

View from above orbital plane
View from above orbital plane
View from above satellite
View from above satellite

Ground track
Ground track

The orbit data is extracted from the following two-line orbital elements,

1 19573U 88093A   24172.98063331  .00005426  00000-0  29260-3 0  9991
2 19573  82.5266  20.3866 0014188 200.5840 159.4823 15.14488581945276
Epoch (UTC): 20 June 2024 23:32:06
Eccentricity: 0.0014188
inclination: 82.5266°
perigee height: 513 km
apogee height: 532 km
right ascension of ascending node: 20.3866°
argument of perigee: 200.5840°
revolutions per day: 15.14488581
mean anomaly at epoch: 159.4823°
orbit number at epoch: 94527

The dashed part of the orbit path shows where the satellite is in the earth's shadow,  

DLR